Voltar ao catálogo

DELTA 1 DEB

AtivoSSO
NORAD 2118·DEBRIS·🇺🇸 United States

Lançado Feb 3, 1966 de Cape Canaveral Space Force Station

Loading…

Próximas Passagens (próximas 24 horas)

TLE

AtualizadoSource: Space-Track

Época: Sep 14, 2026, 13:57 UTC

1 02118U 66008D   26257.58152317  .00000294  00000-0  85476-4 0  9995
2 02118  98.0719  25.4859 0124543 309.2912  49.7288 14.46998564148755

Acompanhe DELTA 1 DEB em tempo real com AllMySat

Download on the App Store